Flag for United Kingdom Weather past 2 weeks in Newport (Isle of Wight), England, United Kingdom

Now
54 °F

Cool.


Feels Like: 54 °F
Forecast: 49 / 55 °F
Wind: 3 mph from West

Location: Saint Catherine's Point

Current Time: May 5, 2015 at 4:19:35 AM

Latest Report: May 5, 2015 at 3:00 AM


Visibility: N/A

Pressure: 29.21 "Hg

Humidity: 100%

Dew point: 54 °F

Location of Newport (Isle of Wight)Location

Historic Weather in Newport (Isle of Wight) — Graph

°F

Newport (Isle of Wight) temperature yesterday

Maximum temperature yesterday: 55 °F (at 11:00 AM)
Minimum temperature yesterday: 51 °F (at 7:00 AM)
Average temperature yesterday: 53 °F

Past Weeks' High & Low Weather Summary

 TemperatureHumidityPressure
High60 °F (Apr 21, 3:00 PM)100% (Apr 24, 11:00 PM)30.51 "Hg (Apr 24, 11:00 PM)
Low40 °F (Apr 27, 6:00 AM)44% (Apr 21, 11:00 AM)29.21 "Hg (May 5, 1:00 AM)
Average50 °F84%29.92 "Hg
* Reported Apr 20 3:00 AM — May 5 3:00 AM, Newport (Isle of Wight), Weather by CustomWeather, © 2015

Note: Actual official high and low records may vary slightly from our data, if they occured in-between our weather recording intervals... More about our weather records

Advertising

Newport (Isle of Wight) weather history for previous 24 hours

 ConditionsComfort  
Time TempWeatherWind HumidityBarometerVisibility
3:00 AM
Tue, May 5
54 °FCool.3 mph100%29.21 "HgN/A
2:00 AM54 °FCool.3 mph100%29.21 "HgN/A
1:00 AM54 °FCool.14 mph100%29.21 "HgN/A
12:00 AM52 °FCool.14 mph100%29.23 "HgN/A
11:00 PM
Mon, May 4
52 °FCool.18 mph100%29.26 "HgN/A
10:00 PM53 °FCool.23 mph100%29.32 "HgN/A
9:00 PM53 °FCool.23 mph100%29.35 "HgN/A
8:00 PM52 °FCool.16 mph100%29.41 "HgN/A
7:00 PM53 °FCool.17 mph100%29.47 "HgN/A
6:00 PM54 °FCool.12 mph100%29.50 "HgN/A
5:00 PM54 °FCool.14 mph100%29.55 "HgN/A
4:00 PM54 °FCool.15 mph97%29.59 "HgN/A
3:00 PM54 °FCool.14 mph97%29.62 "HgN/A
2:00 PM54 °FCool.12 mph98%29.65 "HgN/A
1:00 PM54 °FCool.8 mph99%29.68 "HgN/A
12:00 PM54 °FCool.6 mph97%29.70 "HgN/A
11:00 AM55 °FCool.5 mph96%29.69 "HgN/A
10:00 AM53 °FCool.5 mph99%29.69 "HgN/A
9:00 AM52 °FCool.7 mph100%29.71 "HgN/A
8:00 AM51 °FCool.12 mph100%29.71 "HgN/A
7:00 AM51 °FCool.14 mph100%29.69 "HgN/A
6:00 AM51 °FCool.18 mph100%29.66 "HgN/A
5:00 AM51 °FCool.20 mph100%29.65 "HgN/A
4:00 AM51 °FCool.21 mph100%29.64 "HgN/A
Weather by CustomWeather, © 2015

See weather overviewHow to use our weather pages